Walnut Ridge, AR

2:03 PM CDT on May 29, 2017 (GMT -0500)
Walnut Ridge Regional

Weather History for KARG - January, 2012

Change the Weather History Date:

Sunday, January 29, 2012

  Actual Average Record
Temperature  
Mean Temperature 42 °F -  
Max Temperature 55 °F 44 °F 71 °F (2002)
Min Temperature 28 °F 30 °F 8 °F (2014)
Degree Days  
Heating Degree Days 24    
Moisture  
Dew Point 30 °F    
Average Humidity 66    
Maximum Humidity 93    
Minimum Humidity 36    
Precipitation  
Precipitation 0.00 in - - ()
Sea Level Pressure  
Sea Level Pressure 30.32 in    
Wind  
Wind Speed 10 mph (SSW)    
Max Wind Speed 18 mph    
Max Gust Speed -    
Visibility 10 miles    
Events      
Averages and records for this station are not official NWS values.
T = Trace of Precipitation, MM = Missing Value Source: NWS Daily Summary

Daily Weather History Graph

Daily Weather History Graph

Search for Another Location

Airport or City:

Trip Planner

Search our weather history database for the weather conditions in past years. The results will help you decide how hot, cold, wet, or windy it might be!

Date:

Astronomy

Jan. 29, 2012 Rise Set
Actual Time 7:07 AM CST 5:26 PM CST
Civil Twilight 6:39 AM CST 5:53 PM CST
Nautical Twilight 6:09 AM CST 6:24 PM CST
Astronomical Twilight 5:38 AM CST 6:55 PM CST
Moon 10:12 AM CST 11:57 PM CST
Length of Visible Light 11h 14m
Length of Day
10h 19m
Waxing Crescent, 37% of the Moon is Illuminated
Jan 29
Waxing Crescent
Jan 30
First Quarter
Feb 7
Full
Feb 14
Last Quarter
Feb 21
New

Hourly Weather History & Observations

Time (CST) Temp. Windchill Dew Point Humidity Pressure Visibility Wind Dir Wind Speed Gust Speed Precip Events Conditions
12:15 AM 33.8 °F 29.6 °F 24.8 °F 70% 30.37 in 10.0 mi SSW 4.6 mph - N/A   Clear
12:35 AM 32.0 °F 27.5 °F 24.8 °F 75% 30.37 in 10.0 mi SSW 4.6 mph - N/A   Clear
12:55 AM 30.2 °F 24.3 °F 26.6 °F 86% 30.37 in 10.0 mi South 5.8 mph - N/A   Clear
1:15 AM 30.2 °F 23.4 °F 26.6 °F 86% 30.37 in 10.0 mi South 6.9 mph - N/A   Clear
1:35 AM 30.2 °F 22.6 °F 26.6 °F 86% 30.37 in 10.0 mi SSW 8.1 mph - N/A   Clear
1:55 AM 30.2 °F 21.9 °F 24.8 °F 80% 30.36 in 10.0 mi SSW 9.2 mph - N/A   Clear
2:15 AM 30.2 °F 22.6 °F 24.8 °F 80% 30.36 in 10.0 mi SSW 8.1 mph - N/A   Clear
2:35 AM 30.2 °F 23.4 °F 24.8 °F 80% 30.35 in 10.0 mi SSW 6.9 mph - N/A   Clear
2:55 AM 30.2 °F 21.9 °F 24.8 °F 80% 30.36 in 10.0 mi SSW 9.2 mph - N/A   Clear
3:15 AM 30.2 °F 22.6 °F 24.8 °F 80% 30.36 in 10.0 mi SW 8.1 mph - N/A   Clear
3:35 AM 30.2 °F 21.3 °F 26.6 °F 86% 30.36 in 10.0 mi SSW 10.4 mph - N/A   Clear
3:55 AM 30.2 °F 22.6 °F 26.6 °F 86% 30.35 in 10.0 mi SSW 8.1 mph - N/A   Clear
4:15 AM 30.2 °F 22.6 °F 26.6 °F 86% 30.35 in 10.0 mi South 8.1 mph - N/A   Clear
4:35 AM 30.2 °F 21.9 °F 26.6 °F 86% 30.35 in 10.0 mi South 9.2 mph - N/A   Clear
4:55 AM 30.2 °F 21.3 °F 26.6 °F 86% 30.35 in 10.0 mi SSW 10.4 mph - N/A   Clear
5:15 AM 30.2 °F 22.6 °F 26.6 °F 86% 30.35 in 10.0 mi SSW 8.1 mph - N/A   Clear
5:55 AM 30.2 °F 23.4 °F 24.8 °F 80% 30.35 in 10.0 mi South 6.9 mph - N/A   Clear
6:15 AM 30.2 °F 22.6 °F 26.6 °F 86% 30.35 in 10.0 mi South 8.1 mph - N/A   Clear
6:35 AM 28.4 °F 20.4 °F 26.6 °F 93% 30.35 in 10.0 mi South 8.1 mph - N/A   Clear
6:55 AM 28.4 °F 19.7 °F 26.6 °F 93% 30.36 in 10.0 mi South 9.2 mph - N/A   Clear
7:15 AM 30.2 °F 21.9 °F 26.6 °F 86% 30.36 in 10.0 mi South 9.2 mph - N/A   Clear
7:35 AM 30.2 °F 21.9 °F 28.4 °F 93% 30.37 in 10.0 mi South 9.2 mph - N/A   Clear
7:55 AM 32.0 °F 24.2 °F 28.4 °F 87% 30.37 in 10.0 mi South 9.2 mph - N/A   Clear
8:15 AM 33.8 °F 26.4 °F 28.4 °F 81% 30.36 in 10.0 mi South 9.2 mph - N/A   Clear
8:35 AM 33.8 °F 25.3 °F 28.4 °F 81% 30.36 in 10.0 mi South 11.5 mph - N/A   Clear
8:55 AM 35.6 °F 27.5 °F 28.4 °F 75% 30.35 in 10.0 mi SSW 11.5 mph - N/A   Clear
9:15 AM 37.4 °F 30.8 °F 28.4 °F 70% 30.35 in 10.0 mi South 9.2 mph - N/A   Clear
9:35 AM 39.2 °F 31.6 °F 30.2 °F 70% 30.36 in 10.0 mi SSW 12.7 mph - N/A   Clear
9:55 AM 39.2 °F 32.0 °F 28.4 °F 65% 30.36 in 10.0 mi SSW 11.5 mph - N/A   Clear
10:15 AM 42.8 °F 36.6 °F 28.4 °F 57% 30.37 in 10.0 mi SW 11.5 mph - N/A   Clear
10:35 AM 42.8 °F 36.2 °F 28.4 °F 57% 30.37 in 10.0 mi SSW 12.7 mph - N/A   Clear
10:55 AM 44.6 °F 38.1 °F 30.2 °F 57% 30.36 in 10.0 mi SSW 13.8 mph - N/A   Clear
11:15 AM 46.4 °F 40.7 °F 30.2 °F 53% 30.36 in 10.0 mi SSW 12.7 mph - N/A   Clear
11:35 AM 48.2 °F - 28.4 °F 46% 30.36 in 10.0 mi SSW 12.7 mph - N/A   Clear
11:55 AM 50.0 °F - 28.4 °F 43% 30.35 in 10.0 mi SSW 12.7 mph - N/A   Clear
12:15 PM 51.8 °F - 30.2 °F 44% 30.33 in 10.0 mi SSW 12.7 mph - N/A   Clear
12:35 PM 53.6 °F - 30.2 °F 41% 30.32 in 10.0 mi SSW 15.0 mph - N/A   Clear
12:55 PM 53.6 °F - 30.2 °F 41% 30.31 in 10.0 mi SSW 16.1 mph - N/A   Clear
1:15 PM 55.4 °F - 30.2 °F 38% 30.30 in 10.0 mi SSW 17.3 mph - N/A   Clear
1:35 PM 55.4 °F - 28.4 °F 36% 30.29 in 10.0 mi SSW 18.4 mph - N/A   Clear
1:55 PM 55.4 °F - 28.4 °F 36% 30.28 in 10.0 mi SSW 18.4 mph - N/A   Clear
2:15 PM 55.4 °F - 30.2 °F 38% 30.27 in 10.0 mi South 17.3 mph - N/A   Clear
2:35 PM 55.4 °F - 30.2 °F 38% 30.27 in 10.0 mi South 18.4 mph - N/A   Clear
2:55 PM 55.4 °F - 33.8 °F 44% 30.26 in 10.0 mi South 17.3 mph - N/A   Clear
3:15 PM 55.4 °F - 33.8 °F 44% 30.26 in 10.0 mi South 18.4 mph - N/A   Clear
3:35 PM 55.4 °F - 35.6 °F 47% 30.26 in 10.0 mi South 18.4 mph - N/A   Clear
3:55 PM 53.6 °F - 33.8 °F 47% 30.26 in 10.0 mi South 18.4 mph - N/A   Clear
4:15 PM 53.6 °F - 35.6 °F 51% 30.26 in 10.0 mi South 17.3 mph - N/A   Clear
4:35 PM 53.6 °F - 32.0 °F 44% 30.25 in 10.0 mi South 17.3 mph - N/A   Clear
4:55 PM 51.8 °F - 33.8 °F 50% 30.25 in 10.0 mi South 16.1 mph - N/A   Clear
5:15 PM 50.0 °F - 35.6 °F 58% 30.25 in 10.0 mi South 15.0 mph - N/A   Clear
5:35 PM 48.2 °F - 35.6 °F 62% 30.25 in 10.0 mi South 15.0 mph - N/A   Clear
5:55 PM 46.4 °F 40.4 °F 35.6 °F 66% 30.25 in 10.0 mi South 13.8 mph - N/A   Clear
6:15 PM 46.4 °F 39.8 °F 35.6 °F 66% 30.26 in 10.0 mi South 16.1 mph - N/A   Clear
6:35 PM 46.4 °F 40.4 °F 35.6 °F 66% 30.26 in 10.0 mi South 13.8 mph - N/A   Clear
6:55 PM 46.4 °F 40.7 °F 35.6 °F 66% 30.26 in 10.0 mi South 12.7 mph - N/A   Clear
7:15 PM 44.6 °F 38.8 °F 33.8 °F 66% 30.26 in 10.0 mi SSW 11.5 mph - N/A   Clear
7:35 PM 44.6 °F 38.1 °F 33.8 °F 66% 30.26 in 10.0 mi SSW 13.8 mph - N/A   Clear
7:55 PM 44.6 °F 39.2 °F 33.8 °F 66% 30.26 in 10.0 mi SSW 10.4 mph - N/A   Clear
8:15 PM 44.6 °F 38.8 °F 33.8 °F 66% 30.26 in 10.0 mi SSW 11.5 mph - N/A   Clear
8:35 PM 44.6 °F 39.2 °F 33.8 °F 66% 30.27 in 10.0 mi SSW 10.4 mph - N/A   Clear
8:55 PM 41.0 °F 35.8 °F 32.0 °F 70% 30.27 in 10.0 mi SSW 8.1 mph - N/A   Clear
9:15 PM 42.8 °F 37.5 °F 32.0 °F 66% 30.27 in 10.0 mi SSW 9.2 mph - N/A   Clear
9:35 PM 42.8 °F 37.0 °F 32.0 °F 66% 30.26 in 10.0 mi SSW 10.4 mph - N/A   Clear
10:15 PM 41.0 °F 34.7 °F 32.0 °F 70% 30.26 in 10.0 mi SSW 10.4 mph - N/A   Clear
10:35 PM 41.0 °F 35.2 °F 32.0 °F 70% 30.26 in 10.0 mi SSW 9.2 mph - N/A   Clear
10:55 PM 39.2 °F 32.0 °F 33.8 °F 81% 30.26 in 10.0 mi SSW 11.5 mph - N/A   Clear
11:15 PM 39.2 °F 32.0 °F 33.8 °F 81% 30.26 in 10.0 mi SSW 11.5 mph - N/A   Clear
11:35 PM 39.2 °F 33.0 °F 33.8 °F 81% 30.26 in 10.0 mi SSW 9.2 mph - N/A   Clear
11:55 PM 39.2 °F 32.0 °F 33.8 °F 81% 30.26 in 10.0 mi SSW 11.5 mph - N/A   Clear